Powrót do katalogu

FENGYUN 1C DEB

AktywnyPO
NORAD 31151·DEBRIS·🇨🇳 China

Wystrzelony May 10, 1999 z Taiyuan Satellite Launch Center

Loading…

Następne Przeloty (najbliższe 24 godziny)

TLE

ŚwieżeSource: Space-Track

Epoka: Sep 14, 2026, 00:29 UTC

1 31151U 99025BHD 26257.02080458  .00002827  00000-0  11355-2 0  9991
2 31151  99.1279 279.5731 0052631 313.0124  46.6652 14.28270896999019

Śledź FENGYUN 1C DEB w czasie rzeczywistym z AllMySat

Download on the App Store